Altoona, PA

8:32 PM EDT on June 28, 2017 (GMT -0400)
Altoona-Blair County

Weather History for KAOO - July, 2013

Change the Weather History Date:

Friday, July 12, 2013

  Actual Average Record
Temperature  
Mean Temperature 69 °F 71 °F  
Max Temperature 75 °F 82 °F 90 °F (1952)
Min Temperature 62 °F 60 °F 46 °F (1978)
Degree Days  
Heating Degree Days 0 0  
Month to date heating degree days 0 1  
Since 1 June heating degree days 17 59  
Since 1 July heating degree days 0 1  
Cooling Degree Days 4 6  
Month to date cooling degree days 115 71  
Year to date cooling degree days 319 213  
Since 1 June cooling degree days 252 180  
Growing Degree Days 18 (Base 50)    
Moisture  
Dew Point 61 °F    
Average Humidity 81    
Maximum Humidity 93    
Minimum Humidity 68    
Precipitation  
Precipitation T in 0.11 in 2.30 in (1949)
Month to date precipitation 1.17 1.28  
Year to date precipitation 5.89 18.94  
Sea Level Pressure  
Sea Level Pressure 30.07 in    
Wind  
Wind Speed 6 mph (NE)    
Max Wind Speed 13 mph    
Max Gust Speed 15 mph    
Visibility 10 miles    
Events Rain    
T = Trace of Precipitation, MM = Missing Value Source: NWS Daily Summary

Daily Weather History Graph

Daily Weather History Graph

Search for Another Location

Airport or City:

Trip Planner

Search our weather history database for the weather conditions in past years. The results will help you decide how hot, cold, wet, or windy it might be!

Date:

Astronomy

Jul. 12, 2013 Rise Set
Actual Time 5:54 AM EDT 8:43 PM EDT
Civil Twilight 5:21 AM EDT 9:15 PM EDT
Nautical Twilight 4:41 AM EDT 9:56 PM EDT
Astronomical Twilight 3:54 AM EDT 10:42 PM EDT
Moon 10:09 AM EDT (7/12) 10:52 PM EDT (7/12)
Length of Visible Light 15h 53m
Length of Day
14h 49m
Waxing Crescent, 17% of the Moon is Illuminated
Jul 12
Waxing Crescent
Jul 15
First Quarter
Jul 22
Full
Jul 29
Last Quarter
Aug 6
New

Hourly Weather History & Observations

Time (EDT) Temp. Dew Point Humidity Pressure Visibility Wind Dir Wind Speed Gust Speed Precip Events Conditions
12:53 AM 63.0 °F 60.1 °F 90% 29.99 in 10.0 mi Calm Calm - N/A   Clear
1:53 AM 63.0 °F 60.1 °F 90% 30.00 in 9.0 mi Calm Calm - N/A   Clear
2:53 AM 63.0 °F 60.1 °F 90% 30.00 in 10.0 mi Calm Calm - N/A   Clear
3:53 AM 62.1 °F 59.0 °F 90% 30.00 in 10.0 mi ENE 3.5 mph - N/A   Clear
4:53 AM 62.1 °F 57.9 °F 86% 30.02 in 10.0 mi Calm Calm - N/A   Overcast
5:53 AM 62.1 °F 57.9 °F 86% 30.01 in 10.0 mi ENE 4.6 mph - N/A   Clear
6:53 AM 63.0 °F 57.9 °F 84% 30.03 in 10.0 mi NNE 5.8 mph - N/A   Mostly Cloudy
7:53 AM 64.0 °F 57.9 °F 80% 30.04 in 10.0 mi NNE 8.1 mph - N/A   Scattered Clouds
8:53 AM 64.9 °F 59.0 °F 81% 30.06 in 10.0 mi NNE 5.8 mph - N/A   Scattered Clouds
9:53 AM 66.9 °F 60.1 °F 79% 30.07 in 10.0 mi NE 5.8 mph - N/A   Overcast
10:53 AM 69.1 °F 61.0 °F 75% 30.07 in 10.0 mi NNE 8.1 mph - N/A   Scattered Clouds
11:53 AM 69.1 °F 61.0 °F 75% 30.09 in 10.0 mi North 6.9 mph - N/A   Overcast
12:53 PM 69.1 °F 61.0 °F 75% 30.10 in 10.0 mi NNE 6.9 mph - N/A   Overcast
1:53 PM 69.1 °F 62.1 °F 78% 30.09 in 10.0 mi NNE 5.8 mph - 0.00 in   Overcast
2:53 PM 70.0 °F 62.1 °F 76% 30.09 in 10.0 mi NE 3.5 mph - 0.00 in   Overcast
3:53 PM 72.0 °F 63.0 °F 73% 30.09 in 10.0 mi NNE 6.9 mph - N/A   Mostly Cloudy
4:53 PM 73.9 °F 63.0 °F 68% 30.07 in 10.0 mi NNE 8.1 mph - N/A   Mostly Cloudy
5:53 PM 73.0 °F 63.0 °F 71% 30.07 in 10.0 mi NE 8.1 mph - N/A   Scattered Clouds
6:16 PM 73.4 °F 62.6 °F 69% 30.09 in 10.0 mi Variable 4.6 mph - N/A   Mostly Cloudy
6:37 PM 73.4 °F 62.6 °F 69% 30.09 in 10.0 mi NE 3.5 mph - N/A   Scattered Clouds
6:53 PM 72.0 °F 63.0 °F 73% 30.07 in 10.0 mi NE 5.8 mph - N/A   Scattered Clouds
7:53 PM 72.0 °F 63.0 °F 73% 30.09 in 10.0 mi NE 6.9 mph - N/A   Mostly Cloudy
8:53 PM 69.1 °F 62.1 °F 78% 30.09 in 10.0 mi NNE 5.8 mph - N/A   Partly Cloudy
9:53 PM 68.0 °F 62.1 °F 81% 30.10 in 10.0 mi NE 4.6 mph - N/A   Mostly Cloudy
10:53 PM 69.1 °F 61.0 °F 75% 30.12 in 10.0 mi NNE 5.8 mph - N/A   Overcast
11:32 PM 66.2 °F 62.6 °F 88% 30.15 in 10.0 mi NE 5.8 mph - 0.00 in Rain Light Rain
11:49 PM 66.2 °F 62.6 °F 88% 30.15 in 10.0 mi Variable 4.6 mph - 0.00 in   Overcast
11:53 PM 66.9 °F 63.0 °F 87% 30.13 in 10.0 mi NE 6.9 mph - 0.00 in   Overcast